Location: Bakov nad Jizerou
(50.4784°N, 14.9394°E)
Time: 15:26:00
(UTC+00:00)

ATLAS 3B R/B - Pass Details

Date: 16 June 2021
Orbit: 1003 x 1191 km, 63.8° (Epoch: 21 July)

Event Time Altitude Azimuth Distance (km) Brightness Sun altitude
Rises 23:08:38 0° 249° (WSW) 3,741 5.3 -16.1°
Reaches altitude 10° 23:11:19 10° 255° (WSW) 2,807 4.7 -16.1°
Maximum altitude 23:17:38 45° 328° (NNW) 1,387 3.7 -16.1°
Drops below altitude 10° 23:24:13 10° 41° (NE) 2,924 5.8 -16.0°
Sets 23:27:05 0° 47° (NE) 3,912 6.5 -15.9°
